User: anonymous   Login
Location: Dover
(39.1580°N, 75.5250°W)
Time: 21:31:58
(UTC-04:00)
Language:

Cosmos 1437 Rocket - Orbit

View from above orbital plane
View from above orbital plane
View from above satellite
View from above satellite

Ground track
Ground track

The orbit data is extracted from the following two-line orbital elements,

1 13771U 83003B   15245.87287791 +.00000380 +00000-0 +22555-4 0  9993
2 13771 081.1535 035.8172 0030236 018.1458 342.0837 15.08578584775244
Epoch (UTC): 02 September 2015 20:56:56
Eccentricity: 0.0030236
inclination: 81.1535°
perigee height: 519 km
apogee height: 561 km
right ascension of ascending node: 35.8172°
argument of perigee: 18.1458°
revolutions per day: 15.08578584
mean anomaly at epoch: 342.0837°
orbit number at epoch: 77524

The dashed part of the orbit path shows where the satellite is in the earth's shadow,  

DLR